Printer-friendly version

IAU Minor Planet Center

Minor Planet Center

MPEC 2007-C28 : 2007 CS5

The following Minor Planet Electronic Circular may be linked-to from your own Web pages, but must not otherwise be redistributed electronically.


Read MPEC 2007-C27 Read MPEC 2007-C29


M.P.E.C. 2007-C28                                Issued 2007 Feb. 8, 16:31 UT

     The Minor Planet Electronic Circulars contain information on unusual
         minor planets and routine data on comets.  They are published
   on behalf of Commission 20 of the International Astronomical Union by the
          Minor Planet Center, Smithsonian Astrophysical Observatory,
                          Cambridge, MA 02138, U.S.A.

             Prepared using the Tamkin Foundation Computer Network

                              MPC@CFA.HARVARD.EDU
          URL http://cfa-www.harvard.edu/iau/mpc.html  ISSN 1523-6714

                                   2007 CS5

Observations:
     K07C05S* C2007 02 07.14605 04 17 44.44 +23 48 16.7          20.3 V EC028G96
     K07C05S  C2007 02 07.15223 04 17 49.52 +23 48 32.6          20.2 V EC028G96
     K07C05S  C2007 02 07.15845 04 17 54.63 +23 48 48.6          19.9 V EC028G96
     K07C05S  C2007 02 07.16456 04 17 59.67 +23 49 04.4          20.1 V EC028G96
     K07C05S  C2007 02 07.20944 04 18 36.57 +23 50 55.0          20.2 V EC028G96
     K07C05S  C2007 02 07.21014 04 18 37.26 +23 50 57.3          20.3 V EC028G96
     K07C05S  C2007 02 07.21086 04 18 37.76 +23 50 58.7          20.7 V EC028G96
     K07C05S  C2007 02 07.21157 04 18 38.34 +23 51 00.1          21.7 V EC028G96
     K07C05S  C2007 02 08.12689 04 31 47.20 +24 28 09.7          20.1 V EC028G96
     K07C05S  C2007 02 08.13422 04 31 52.78 +24 28 25.8          19.9 V EC028G96
     K07C05S  C2007 02 08.14160 04 31 58.51 +24 28 41.8          20.3 V EC028G96
     K07C05S  C2007 02 08.14914 04 32 04.27 +24 28 57.7          20.5 V EC028G96

Observer details:
G96 Mt. Lemmon Survey.  Observer R. A. Kowalski.  Measurers E. C. Beshore,
    E. J. Christensen, G. J. Garradd, A. R. Gibbs, A. D. Grauer, R. E. Hill,
    R. A. Kowalski, S. M. Larson, R. H. McNaught.  1.5-m reflector + CCD.

Orbital elements:
2007 CS5                                                 Earth MOID = 0.0007 AU
Epoch 2007 Apr. 10.0 TT = JDT 2454200.5                 MPC
M 148.43635              (2000.0)            P               Q
n   1.00600439     Peri.  263.89702     +0.87073329     -0.49164389
a   0.9864373      Node   125.55119     +0.45611852     +0.79948378
e   0.1709893      Incl.    0.73804     +0.18379182     +0.34512604
P   0.98           H   24.4           G   0.15           U   8
Residuals in seconds of arc
070207 G96  0.2-  0.1+    070207 G96  0.4-  0.4-    070208 G96  0.2+  0.2-
070207 G96  0.0   0.1+    070207 G96  1.1+  0.2+    070208 G96  0.4-  0.0
070207 G96  0.2+  0.2+    070207 G96  0.2-  0.1-    070208 G96  0.5+  0.2+
070207 G96  0.5+  0.4+    070207 G96  0.4-  0.5-    070208 G96  0.1+  0.0

Ephemeris:
2007 CS5                 a,e,i = 0.99, 0.17, 1                   q = 0.8178
Date    TT    R. A. (2000) Decl.     Delta      r     Elong.  Phase     V
2007 02 09    04 43.55   +24 57.9    0.0550   1.009   112.9    64.2    20.4
2007 02 11    05 08.01   +25 47.0    0.0597   1.015   116.5    60.5    20.5
2007 02 13    05 29.29   +26 16.5    0.0649   1.021   119.3    57.5    20.6
2007 02 15    05 47.78   +26 32.3    0.0705   1.026   121.4    55.2    20.7
2007 02 17    06 03.92   +26 38.4    0.0764   1.032   123.0    53.5    20.8
2007 02 19    06 18.11   +26 37.9    0.0826   1.037   124.1    52.1    21.0
2007 02 21    06 30.69   +26 32.7    0.0890   1.042   124.9    51.1    21.1
2007 02 23    06 41.94   +26 24.3    0.0956   1.048   125.4    50.3    21.3
2007 02 25    06 52.09   +26 13.5    0.102    1.053   125.7    49.8    21.4
2007 02 27    07 01.33   +26 01.2    0.109    1.058   125.8    49.4    21.6
2007 03 01    07 09.80   +25 47.6    0.116    1.063   125.7    49.2    21.7
2007 03 03    07 17.65   +25 33.2    0.124    1.068   125.5    49.1    21.8
2007 03 05    07 24.95   +25 18.2    0.131    1.072   125.2    49.1    22.0
2007 03 07    07 31.81   +25 02.6    0.138    1.077   124.7    49.2    22.1
2007 03 09    07 38.29   +24 46.7    0.146    1.082   124.2    49.4    22.2
2007 03 11    07 44.46   +24 30.3    0.154    1.086   123.7    49.6    22.4

Timothy B. Spahr             (C) Copyright 2007 MPC           M.P.E.C. 2007-C28

Read MPEC 2007-C27 Read MPEC 2007-C29


Our Web policy. Index to the CBAT/MPC/ICQ pages.


Valid HTML 4.01!